Volver al catálogo

ONEWEB-0716

ActivoComunicacionesPO
NORAD 55177·PAYLOAD·🇬🇧 United Kingdom

Lanzado Jan 10, 2023 desde Cape Canaveral Space Force Station

Loading…

Próximos Pases (próximas 24 horas)

TLE

ActualizadoSource: CelesTrak SupGP

Época: Sep 14, 2026, 08:28 UTC

1 55177C 23004AP  26257.35295556 -.00003459  00000+0 -89187-2 0  2570
2 55177  87.9201 348.1611 0002006  96.8424 295.7794 13.17651246    19

Sigue ONEWEB-0716 en tiempo real con AllMySat

Download on the App Store